This is the latest recevied weather packets stored in our database for station/object EB5AGF-13. If no packets are shown the sender has not sent any weather packets the latest 10 day(s).
| Time | Temp. | Humidity | Pressure | Rain* | Wind** | Luminosity | Snow |
|---|---|---|---|---|---|---|---|
| 1777916632 | 20.56° C | 77% | 1007.3 hPa | 0 mm | 1.79 m/s, 201° | 67 W/m² | - |
| 1777916329 | 20° C | 77% | 1007.2 hPa | 0 mm | 2.24 m/s, 214° | 75 W/m² | - |
| 1777916024 | 20° C | 77% | 1007.3 hPa | 0 mm | 6.26 m/s, 256° | 81 W/m² | - |
| 1777915720 | 20° C | 77% | 1007.4 hPa | 0 mm | 4.92 m/s, 228° | 88 W/m² | - |
| 1777915412 | 20° C | 77% | 1007.1 hPa | 0 mm | 5.81 m/s, 232° | 100 W/m² | - |
| 1777915111 | 20° C | 77% | 1007.4 hPa | 0 mm | 3.13 m/s, 227° | 111 W/m² | - |
| 1777914792 | 20° C | 77% | 1007.4 hPa | 0 mm | 5.81 m/s, 218° | 113 W/m² | - |
| 1777914490 | 20° C | 76% | 1007.1 hPa | 0 mm | 3.13 m/s, 177° | 125 W/m² | - |
| 1777914169 | 20° C | 76% | 1007.5 hPa | 0 mm | 4.47 m/s, 239° | 134 W/m² | - |
| 1777913864 | 20.56° C | 76% | 1007.3 hPa | 0 mm | 4.92 m/s, 225° | 143 W/m² | - |
| 1777913562 | 20.56° C | 75% | 1007.5 hPa | 0 mm | 5.81 m/s, 220° | 151 W/m² | - |
| 1777913256 | 20.56° C | 75% | 1007.4 hPa | 0 mm | 0.89 m/s, 357° | 163 W/m² | - |
| 1777912953 | 21.11° C | 74% | 1007.4 hPa | 0 mm | 1.79 m/s, 201° | 180 W/m² | - |
| 1777912632 | 21.11° C | 73% | 1007.5 hPa | 0 mm | 2.24 m/s, 236° | 184 W/m² | - |
| 1777912328 | 21.11° C | 74% | 1007.5 hPa | 0 mm | 1.34 m/s, 210° | 197 W/m² | - |
| 1777912025 | 21.11° C | 73% | 1007.3 hPa | 0 mm | 3.58 m/s, 203° | 208 W/m² | - |
| 1777911705 | 21.11° C | 75% | 1007.3 hPa | 0 mm | 3.13 m/s, 154° | 218 W/m² | - |
| 1777911393 | 20.56° C | 74% | 1007.7 hPa | 0 mm | 3.13 m/s, 176° | 233 W/m² | - |
| 1777911049 | 21.11° C | 73% | 1007.6 hPa | 0 mm | 4.47 m/s, 197° | 239 W/m² | - |
| 1777910744 | 21.11° C | 72% | 1007.5 hPa | 0 mm | 1.34 m/s, 212° | 253 W/m² | - |
| 1777910440 | 21.11° C | 71% | 1007.2 hPa | 0 mm | 7.15 m/s, 176° | 266 W/m² | - |
| 1777910137 | 20.56° C | 72% | 1007.4 hPa | 0 mm | 2.68 m/s, 192° | 277 W/m² | - |
| 1777909832 | 21.11° C | 71% | 1007.5 hPa | 0 mm | 0.89 m/s, 266° | 288 W/m² | - |
| 1777909531 | 21.11° C | 72% | 1007.5 hPa | 0 mm | 5.36 m/s, 199° | 299 W/m² | - |
| 1777909232 | 21.11° C | 73% | 1007.4 hPa | 0 mm | 1.79 m/s, 195° | 313 W/m² | - |
* Rain latest hour (hover to see other rain measurements)
** Current wind speed in m/s (hover to see current wind gust speed)